| time (UTC) | temp F | wind direction | speed MPH | gust MPH | rain 1hr in | rain 24hr in | rain mn in | humidity % | barometer mb |
| 20260503203054 | 65 | 219 | 5.0 | 15.0 | 0.00 | 0.00 | 0.00 | 22 | 1008.0 |
| 20260503201547 | 65 | 219 | 5.0 | 11.0 | 0.00 | 0.00 | 0.00 | 22 | 1008.3 |
| 20260503200045 | 66 | 219 | 8.0 | 16.0 | 0.00 | 0.00 | 0.00 | 23 | 1008.6 |
| 20260503194542 | 66 | 219 | 5.0 | 14.0 | 0.00 | 0.00 | 0.00 | 22 | 1008.8 |
| 20260503193044 | 63 | 219 | 4.0 | 14.0 | 0.00 | 0.00 | 0.00 | 24 | 1009.1 |
| 20260503191539 | 65 | 219 | 3.0 | 9.0 | 0.00 | 0.00 | 0.00 | 22 | 1009.5 |
| 20260503190034 | 64 | 219 | 2.0 | 10.0 | 0.00 | 0.00 | 0.00 | 22 | 1010.0 |
| 20260503184532 | 64 | 219 | 6.0 | 13.0 | 0.00 | 0.00 | 0.00 | 24 | 1010.3 |
| 20260503183028 | 62 | 219 | 3.0 | 9.0 | 0.00 | 0.00 | 0.00 | 23 | 1010.7 |
| 20260503181526 | 63 | 219 | 4.0 | 9.0 | 0.00 | 0.00 | 0.00 | 23 | 1011.0 |
| 20260503180031 | 62 | 219 | 2.0 | 6.0 | 0.00 | 0.00 | 0.00 | 25 | 1011.1 |
| 20260503174518 | 61 | 219 | 5.0 | 10.0 | 0.00 | 0.00 | 0.00 | 28 | 1011.4 |
| 20260503173015 | 60 | 219 | 4.0 | 9.0 | 0.00 | 0.00 | 0.00 | 30 | 1011.8 |
| 20260503171511 | 60 | 219 | 2.0 | 7.0 | 0.00 | 0.00 | 0.00 | 30 | 1012.0 |
| 20260503160115 | 56 | 219 | 1.0 | 6.0 | 0.00 | 0.00 | 0.00 | 46 | 1012.6 |
| 20260503110106 | 42 | 219 | 0.0 | 1.0 | 0.00 | 0.00 | 0.00 | 74 | 1014.0 |
| 20260503081547 | 42 | 219 | 1.0 | 4.0 | 0.00 | 0.00 | 0.00 | 70 | 1014.8 |
| 20260503071546 | 44 | 219 | 3.0 | 6.0 | 0.00 | 0.00 | 0.00 | 68 | 1015.2 |
| 20260503054536 | 46 | 219 | 4.0 | 9.0 | 0.00 | 0.00 | 0.00 | 65 | 1015.3 |
| 20260503053031 | 46 | 219 | 5.0 | 11.0 | 0.00 | 0.00 | 0.00 | 65 | 1015.4 |
| 20260503051527 | 47 | 219 | 4.0 | 9.0 | 0.00 | 0.00 | 0.00 | 64 | 1015.3 |
| 20260503050032 | 47 | 219 | 3.0 | 8.0 | 0.00 | 0.00 | 0.00 | 64 | 1015.3 |
| 20260503044526 | 47 | 219 | 5.0 | 11.0 | 0.00 | 0.00 | 0.00 | 63 | 1015.3 |
| 20260503043038 | 48 | 219 | 4.0 | 13.0 | 0.00 | 0.00 | 0.00 | 62 | 1015.2 |
| 20260503041526 | 48 | 219 | 5.0 | 13.0 | 0.00 | 0.00 | 0.00 | 60 | 1015.2 |
| 20260503040025 | 49 | 219 | 8.0 | 14.0 | 0.00 | 0.00 | 0.00 | 57 | 1015.1 |
| 20260503034525 | 50 | 219 | 8.0 | 15.0 | 0.00 | 0.00 | 0.00 | 52 | 1015.2 |
| 20260503033031 | 51 | 219 | 9.0 | 16.0 | 0.00 | 0.00 | 0.00 | 49 | 1015.1 |
| 20260503031524 | 52 | 219 | 10.0 | 18.0 | 0.00 | 0.00 | 0.00 | 44 | 1014.9 |
| 20260503030023 | 53 | 267 | 7.0 | 13.0 | 0.00 | 0.00 | 0.00 | 37 | 1014.7 |
| 20260503024527 | 53 | 270 | 6.0 | 10.0 | 0.00 | 0.00 | 0.00 | 34 | 1014.5 |
| 20260503023022 | 53 | 270 | 5.0 | 8.0 | 0.00 | 0.00 | 0.00 | 32 | 1014.3 |
| 20260503021538 | 54 | 270 | 4.0 | 8.0 | 0.00 | 0.00 | 0.00 | 30 | 1014.3 |
| 20260503020022 | 55 | 270 | 6.0 | 9.0 | 0.00 | 0.00 | 0.00 | 28 | 1014.3 |
| 20260503014521 | 57 | 270 | 2.0 | 6.0 | 0.00 | 0.00 | 0.00 | 26 | 1014.2 |
| 20260503013020 | 58 | 270 | 4.0 | 8.0 | 0.00 | 0.00 | 0.00 | 24 | 1014.2 |
| 20260503011520 | 59 | 270 | 2.0 | 8.0 | 0.00 | 0.00 | 0.00 | 23 | 1014.2 |
| 20260503010019 | 60 | 270 | 4.0 | 13.0 | 0.00 | 0.00 | 0.00 | 22 | 1014.3 |
| 20260503004519 | 61 | 270 | 4.0 | 10.0 | 0.00 | 0.00 | 0.00 | 22 | 1014.2 |
| 20260503003020 | 62 | 270 | 4.0 | 8.0 | 0.00 | 0.00 | 0.00 | 20 | 1014.3 |
| 20260503001518 | 62 | 270 | 2.0 | 7.0 | 0.00 | 0.00 | 0.00 | 21 | 1014.3 |
| 20260503000016 | 62 | 270 | 1.0 | 6.0 | 0.00 | 0.00 | 0.00 | 21 | 1014.4 |
| 20260502234516 | 63 | 270 | 6.0 | 10.0 | 0.00 | 0.03 | 0.00 | 20 | 1014.4 |
| 20260502233014 | 63 | 270 | 4.0 | 8.0 | 0.00 | 0.03 | 0.00 | 21 | 1014.6 |
| 20260502231515 | 62 | 270 | 2.0 | 5.0 | 0.00 | 0.03 | 0.00 | 21 | 1014.7 |
| 20260502230012 | 62 | 270 | 6.0 | 9.0 | 0.00 | 0.03 | 0.00 | 21 | 1014.8 |
| 20260502224512 | 64 | 273 | 6.0 | 9.0 | 0.00 | 0.03 | 0.00 | 22 | 1014.8 |
| 20260502223009 | 63 | 273 | 6.0 | 10.0 | 0.00 | 0.03 | 0.00 | 22 | 1015.1 |
| 20260502221508 | 61 | 273 | 2.0 | 13.0 | 0.00 | 0.03 | 0.00 | 24 | 1015.4 |
| 20260502220006 | 62 | 275 | 3.0 | 13.0 | 0.00 | 0.03 | 0.00 | 22 | 1015.6 |
| 20260502214503 | 62 | 275 | 3.0 | 12.0 | 0.00 | 0.03 | 0.00 | 26 | 1016.0 |
| 20260502213108 | 60 | 275 | 5.0 | 14.0 | 0.00 | 0.03 | 0.00 | 26 | 1016.3 |
| 20260502211558 | 62 | 304 | 5.0 | 11.0 | 0.00 | 0.03 | 0.00 | 25 | 1016.6 |
| 20260502210055 | 62 | 304 | 2.0 | 11.0 | 0.00 | 0.03 | 0.00 | 25 | 1016.9 |
| 20260502204555 | 60 | 304 | 4.0 | 11.0 | 0.00 | 0.03 | 0.00 | 27 | 1017.2 |